TimeCDT,TemperatureF,Dew PointF,Humidity,Sea Level PressureIn,VisibilityMPH,Wind Direction,Wind SpeedMPH,Gust SpeedMPH,PrecipitationIn,Events,Conditions,WindDirDegrees,DateUTC
12:53 AM,73.9,64.9,73,30.00,10.0,Calm,Calm,-,N/A,,Clear,0,2013-06-16 05:53:00
1:53 AM,73.0,66.0,79,30.00,10.0,Calm,Calm,-,N/A,,Clear,0,2013-06-16 06:53:00
2:53 AM,70.0,66.0,87,29.98,10.0,Calm,Calm,-,N/A,,Clear,0,2013-06-16 07:53:00
3:53 AM,71.1,66.0,84,29.98,10.0,NNW,3.5,-,N/A,,Clear,330,2013-06-16 08:53:00
4:53 AM,69.1,64.9,87,29.96,10.0,SSE,5.8,-,N/A,,Clear,160,2013-06-16 09:53:00
5:53 AM,70.0,66.0,87,29.99,10.0,Calm,Calm,-,N/A,,Clear,0,2013-06-16 10:53:00
6:53 AM,71.1,66.0,84,30.01,10.0,Calm,Calm,-,N/A,,Clear,0,2013-06-16 11:53:00
7:53 AM,73.0,68.0,84,30.01,10.0,Calm,Calm,-,N/A,,Partly Cloudy,0,2013-06-16 12:53:00
8:53 AM,75.9,66.9,74,30.01,10.0,South,3.5,-,N/A,,Scattered Clouds,180,2013-06-16 13:53:00
9:53 AM,80.1,66.9,64,30.00,10.0,SSW,6.9,-,N/A,,Mostly Cloudy,200,2013-06-16 14:53:00
10:53 AM,82.9,68.0,60,29.99,10.0,SSW,8.1,-,N/A,,Clear,200,2013-06-16 15:53:00
11:53 AM,82.0,68.0,62,29.99,10.0,SW,9.2,-,N/A,,Clear,220,2013-06-16 16:53:00
12:53 PM,82.0,68.0,62,29.99,10.0,WSW,8.1,-,N/A,,Clear,240,2013-06-16 17:53:00
1:53 PM,84.0,68.0,58,29.98,10.0,West,9.2,-,N/A,,Clear,260,2013-06-16 18:53:00
2:53 PM,84.9,66.9,55,29.96,10.0,West,6.9,-,N/A,,Clear,280,2013-06-16 19:53:00
3:53 PM,86.0,68.0,55,29.95,10.0,West,5.8,-,N/A,,Clear,270,2013-06-16 20:53:00
4:53 PM,84.9,69.1,59,29.93,9.0,SSE,5.8,-,N/A,,Partly Cloudy,160,2013-06-16 21:53:00
5:53 PM,84.9,69.1,59,29.92,9.0,SSW,6.9,-,N/A,,Partly Cloudy,210,2013-06-16 22:53:00
6:53 PM,82.9,70.0,65,29.93,9.0,South,3.5,-,N/A,,Clear,190,2013-06-16 23:53:00
7:53 PM,80.1,70.0,71,29.93,9.0,South,3.5,-,N/A,,Clear,180,2013-06-17 00:53:00
8:53 PM,73.9,70.0,87,29.93,9.0,Calm,Calm,-,N/A,,Clear,0,2013-06-17 01:53:00
9:53 PM,75.9,70.0,82,29.94,9.0,Calm,Calm,-,N/A,,Clear,0,2013-06-17 02:53:00
10:53 PM,73.9,71.1,91,29.94,8.0,Calm,Calm,-,N/A,,Clear,0,2013-06-17 03:53:00
11:53 PM,73.0,70.0,90,29.93,7.0,Calm,Calm,-,N/A,,Clear,0,2013-06-17 04:53:00